| time (UTC) | temp C | wind direction | speed KPH | gust KPH | rain 1hr cm | rain 24hr cm | rain mn cm | humidity % | barometer mb |
| 20260506184641 | 13 | 61 | 4.8 | 9.7 | 0.00 | 0.00 | 0.00 | 37 | 1012.1 |
| 20260506183141 | 13 | 146 | 4.8 | 11.3 | 0.00 | 0.00 | 0.00 | 39 | 1011.9 |
| 20260506181641 | 12 | 68 | 4.8 | 12.9 | 0.00 | 0.00 | 0.00 | 43 | 1012.0 |
| 20260506180141 | 11 | 11 | 4.8 | 12.9 | 0.00 | 0.00 | 0.00 | 44 | 1012.5 |
| 20260506174641 | 11 | 26 | 4.8 | 14.5 | 0.00 | 0.00 | 0.00 | 44 | 1012.5 |
| 20260506173141 | 11 | 43 | 6.4 | 9.7 | 0.00 | 0.00 | 0.00 | 47 | 1012.8 |
| 20260506171641 | 11 | 45 | 4.8 | 9.7 | 0.00 | 0.00 | 0.00 | 47 | 1013.4 |
| 20260506170141 | 10 | 58 | 4.8 | 8.0 | 0.00 | 0.00 | 0.00 | 47 | 1013.3 |
| 20260506164641 | 10 | 17 | 4.8 | 11.3 | 0.00 | 0.00 | 0.00 | 49 | 1013.3 |
| 20260506163141 | 10 | 32 | 3.2 | 4.8 | 0.00 | 0.00 | 0.00 | 50 | 1013.4 |
| 20260506161641 | 9 | 47 | 6.4 | 20.9 | 0.00 | 0.00 | 0.00 | 50 | 1013.5 |
| 20260506160141 | 8 | 85 | 6.4 | 12.9 | 0.00 | 0.00 | 0.00 | 49 | 1013.7 |
| 20260506154641 | 7 | 85 | 4.8 | 8.0 | 0.00 | 0.00 | 0.00 | 52 | 1013.7 |
| 20260506153141 | 7 | 84 | 4.8 | 11.3 | 0.00 | 0.00 | 0.00 | 53 | 1013.9 |
| 20260506151641 | 8 | 74 | 1.6 | 9.7 | 0.00 | 0.00 | 0.00 | 53 | 1013.9 |
| 20260506150141 | 8 | 133 | 1.6 | 3.2 | 0.00 | 0.00 | 0.00 | 57 | 1013.8 |
| 20260506144641 | 7 | 100 | 3.2 | 8.0 | 0.00 | 0.00 | 0.00 | 50 | 1013.8 |
| 20260506143141 | 7 | 88 | 3.2 | 6.4 | 0.00 | 0.00 | 0.00 | 51 | 1013.9 |
| 20260506141641 | 7 | 79 | 1.6 | 4.8 | 0.00 | 0.00 | 0.00 | 53 | 1014.1 |
| 20260506140141 | 6 | 96 | 3.2 | 6.4 | 0.00 | 0.00 | 0.00 | 51 | 1014.1 |
| 20260506134642 | 6 | 69 | 3.2 | 6.4 | 0.00 | 0.00 | 0.00 | 51 | 1014.1 |
| 20260506133141 | 6 | 105 | 1.6 | 3.2 | 0.00 | 0.00 | 0.00 | 51 | 1014.0 |
| 20260506131641 | 6 | 107 | 1.6 | 3.2 | 0.00 | 0.00 | 0.00 | 48 | 1014.0 |
| 20260506130141 | 5 | 107 | 1.6 | 1.6 | 0.00 | 0.00 | 0.00 | 48 | 1014.1 |
| 20260506124641 | 5 | 107 | 4.8 | 11.3 | 0.00 | 0.00 | 0.00 | 49 | 1014.4 |
| 20260506123141 | 5 | 93 | 4.8 | 9.7 | 0.00 | 0.00 | 0.00 | 50 | 1014.3 |
| 20260506121641 | 5 | 108 | 1.6 | 8.0 | 0.00 | 0.00 | 0.00 | 49 | 1014.4 |
| 20260506120141 | 5 | 107 | 3.2 | 6.4 | 0.00 | 0.00 | 0.00 | 50 | 1014.0 |
| 20260506114641 | 5 | 117 | 3.2 | 4.8 | 0.00 | 0.00 | 0.00 | 49 | 1014.1 |
| 20260506113141 | 5 | 140 | 4.8 | 6.4 | 0.00 | 0.00 | 0.00 | 49 | 1014.2 |
| 20260506111642 | 5 | 140 | 4.8 | 11.3 | 0.00 | 0.00 | 0.00 | 49 | 1014.4 |
| 20260506110142 | 5 | 144 | 8.0 | 11.3 | 0.00 | 0.00 | 0.00 | 48 | 1014.4 |
| 20260506104642 | 5 | 139 | 8.0 | 16.1 | 0.00 | 0.00 | 0.00 | 47 | 1014.6 |
| 20260506103142 | 5 | 139 | 11.3 | 17.7 | 0.00 | 0.00 | 0.00 | 48 | 1014.5 |
| 20260506101642 | 5 | 138 | 12.9 | 14.5 | 0.00 | 0.00 | 0.00 | 47 | 1014.2 |
| 20260506100142 | 5 | 124 | 12.9 | 17.7 | 0.00 | 0.00 | 0.00 | 48 | 1014.2 |
| 20260506094642 | 5 | 139 | 12.9 | 17.7 | 0.00 | 0.00 | 0.00 | 48 | 1014.2 |
| 20260506093142 | 5 | 130 | 11.3 | 16.1 | 0.00 | 0.00 | 0.00 | 47 | 1014.3 |
| 20260506091642 | 5 | 148 | 8.0 | 16.1 | 0.00 | 0.00 | 0.00 | 47 | 1014.3 |
| 20260506090142 | 5 | 185 | 6.4 | 14.5 | 0.00 | 0.00 | 0.00 | 48 | 1014.3 |
| 20260506084642 | 5 | 142 | 17.7 | 25.7 | 0.00 | 0.00 | 0.00 | 48 | 1014.5 |
| 20260506083142 | 6 | 142 | 20.9 | 29.0 | 0.00 | 0.00 | 0.00 | 47 | 1014.5 |
| 20260506081642 | 6 | 140 | 20.9 | 29.0 | 0.00 | 0.00 | 0.00 | 46 | 1014.4 |
| 20260506080142 | 6 | 135 | 22.5 | 29.0 | 0.00 | 0.00 | 0.00 | 46 | 1014.1 |
| 20260506073143 | 6 | 144 | 19.3 | 25.7 | 0.00 | 0.00 | 0.00 | 48 | 1014.4 |
| 20260506071642 | 5 | 140 | 20.9 | 25.7 | 0.00 | 0.00 | 0.00 | 49 | 1014.4 |
| 20260506070142 | 6 | 140 | 17.7 | 20.9 | 0.00 | 0.00 | 0.00 | 49 | 1014.5 |
| 20260506061642 | 6 | 147 | 22.5 | 29.0 | 0.00 | 0.00 | 0.00 | 48 | 1014.3 |
| 20260506060142 | 6 | 126 | 19.3 | 25.7 | 0.00 | 0.00 | 0.00 | 48 | 1014.1 |
| 20260506050142 | 7 | 131 | 25.7 | 35.4 | 0.00 | 0.00 | 0.00 | 46 | 1014.5 |
| 20260506044642 | 7 | 153 | 25.7 | 33.8 | 0.00 | 0.00 | 0.00 | 46 | 1014.4 |
| 20260506043142 | 7 | 132 | 24.1 | 32.2 | 0.00 | 0.00 | 0.00 | 47 | 1014.3 |
| 20260506041642 | 7 | 111 | 25.7 | 43.5 | 0.00 | 0.00 | 0.00 | 47 | 1014.0 |
| 20260506040142 | 7 | 122 | 24.1 | 35.4 | 0.00 | 0.00 | 0.00 | 47 | 1013.9 |
| 20260506034642 | 7 | 95 | 24.1 | 37.0 | 0.00 | 0.00 | 0.00 | 46 | 1013.7 |
| 20260506033142 | 7 | 125 | 24.1 | 33.8 | 0.00 | 0.00 | 0.00 | 45 | 1013.4 |
| 20260506031642 | 8 | 111 | 24.1 | 35.4 | 0.00 | 0.00 | 0.00 | 45 | 1013.0 |
| 20260506030142 | 8 | 121 | 20.9 | 33.8 | 0.00 | 0.00 | 0.00 | 44 | 1013.1 |
| 20260506024642 | 8 | 101 | 22.5 | 37.0 | 0.00 | 0.00 | 0.00 | 43 | 1013.0 |
| 20260506023142 | 9 | 122 | 19.3 | 30.6 | 0.00 | 0.00 | 0.00 | 41 | 1012.6 |
| 20260506021642 | 10 | 107 | 16.1 | 35.4 | 0.00 | 0.00 | 0.00 | 41 | 1012.4 |
| 20260506020142 | 10 | 70 | 17.7 | 25.7 | 0.00 | 0.00 | 0.00 | 40 | 1012.4 |
| 20260506014642 | 10 | 81 | 17.7 | 29.0 | 0.00 | 0.00 | 0.00 | 40 | 1012.5 |
| 20260506013142 | 10 | 96 | 16.1 | 30.6 | 0.00 | 0.00 | 0.00 | 39 | 1012.6 |
| 20260506011642 | 11 | 80 | 14.5 | 24.1 | 0.00 | 0.00 | 0.00 | 37 | 1012.2 |
| 20260506010143 | 11 | 69 | 11.3 | 20.9 | 0.00 | 0.00 | 0.00 | 37 | 1012.3 |
| 20260506004643 | 11 | 73 | 12.9 | 22.5 | 0.00 | 0.00 | 0.00 | 36 | 1012.3 |
| 20260506003143 | 11 | 66 | 14.5 | 22.5 | 0.00 | 0.00 | 0.00 | 36 | 1012.6 |
| 20260506001643 | 12 | 132 | 14.5 | 24.1 | 0.00 | 0.00 | 0.00 | 35 | 1012.4 |
| 20260506000143 | 12 | 74 | 6.4 | 17.7 | 0.00 | 0.00 | 0.00 | 34 | 1012.4 |
| 20260505234643 | 12 | 80 | 9.7 | 16.1 | 0.00 | 0.00 | 0.00 | 35 | 1012.8 |
| 20260505233143 | 12 | 83 | 11.3 | 24.1 | 0.00 | 0.00 | 0.00 | 33 | 1012.5 |
| 20260505231643 | 13 | 108 | 6.4 | 19.3 | 0.00 | 0.00 | 0.00 | 32 | 1012.5 |
| 20260505230143 | 13 | 145 | 3.2 | 9.7 | 0.00 | 0.00 | 0.00 | 33 | 1013.0 |
| 20260505224643 | 12 | 321 | 6.4 | 8.0 | 0.00 | 0.00 | 0.00 | 34 | 1013.0 |
| 20260505223143 | 12 | 355 | 4.8 | 14.5 | 0.00 | 0.00 | 0.00 | 33 | 1013.0 |
| 20260505221643 | 12 | 57 | 6.4 | 12.9 | 0.00 | 0.00 | 0.00 | 33 | 1013.2 |
| 20260505220143 | 12 | 47 | 6.4 | 12.9 | 0.00 | 0.00 | 0.00 | 35 | 1013.3 |
| 20260505214643 | 12 | 92 | 8.0 | 16.1 | 0.00 | 0.00 | 0.00 | 33 | 1013.7 |
| 20260505213143 | 12 | 80 | 6.4 | 12.9 | 0.00 | 0.00 | 0.00 | 34 | 1013.6 |
| 20260505211643 | 12 | 38 | 9.7 | 20.9 | 0.00 | 0.00 | 0.00 | 34 | 1013.7 |
| 20260505210143 | 11 | 51 | 11.3 | 19.3 | 0.00 | 0.00 | 0.00 | 35 | 1014.1 |
| 20260505204643 | 11 | 92 | 8.0 | 16.1 | 0.00 | 0.00 | 0.00 | 37 | 1013.9 |
| 20260505203143 | 11 | 55 | 11.3 | 27.4 | 0.00 | 0.00 | 0.00 | 36 | 1014.0 |
| 20260505201643 | 12 | 63 | 11.3 | 20.9 | 0.00 | 0.00 | 0.00 | 35 | 1014.1 |
| 20260505200143 | 12 | 126 | 6.4 | 12.9 | 0.00 | 0.00 | 0.00 | 32 | 1013.9 |
| 20260505194643 | 12 | 345 | 4.8 | 8.0 | 0.00 | 0.00 | 0.00 | 33 | 1014.1 |
| 20260505193143 | 11 | 327 | 6.4 | 17.7 | 0.00 | 0.00 | 0.00 | 32 | 1014.4 |
| 20260505191643 | 11 | 289 | 6.4 | 16.1 | 0.00 | 0.00 | 0.00 | 33 | 1014.1 |
| 20260505190143 | 11 | 349 | 8.0 | 14.5 | 0.00 | 0.00 | 0.00 | 33 | 1014.3 |